Погода в Редкой Дубраве

Россия / Алтайский край     53°16′35″N   79°02′49″E
темп.,
°C
ветер,
м/с
пор.,
м/с
влажн.,
%
обл.,
%
осадки,
мм/ч
давл.,
гПа
погр.,
м
25 июля, вс
вс2501:00+20в22755 0.0 100716
04:00+18в117826 0.0 100711
07:00+19св22760 0.0 100722
10:00+25всв22493 0.0 1006504
13:00+29вюв113770 0.0 10051555
16:00+30зюз123376 0.0 10041910
19:00+30ссв013210 0.0 10031599
22:00+24вюв445299 0.0 100245
26 июля, пн
пн2601:00+22юв465496 0.0 100275
04:00+20зюз335786 0.0 100241
07:00+20зсз377128 0.0 1002176
10:00+23зсз89692 0.0 1003714
13:00+21зсз7970100 0.0 10041000
16:00+20сз8107188 0.1 1006998
19:00+18сз71172100 0.1 1007987
22:00+17сз611710 0.0 1008609
27 июля, вт
вт2701:00+14сз512830 0.0 1010538
04:00+11сз410900 0.0 1010249
07:00+11сз38790 0.0 1012216
10:00+15зсз2361100 0.0 1012391
13:00+19з454999 0.0 10121257
16:00+18з554792 0.0 1011896
19:00+17сз6848100 0.0 1011620
22:00+14сз35615 0.0 101283
28 июля, ср
ср2801:00+11сз33696 0.0 101229
04:00+11сз227140 0.0 101218
07:00+13сз2360100 0.0 101296
10:00+16сз2350100 0.0 1012310
13:00+20зсз343625 0.0 10122044
16:00+20сз3338100 0.0 10121694
19:00+22всв02345 0.0 10112047
22:00+16ююв33505 0.0 101122
29 июля, чт
чт2901:00+15ююв345142 0.0 101167
04:00+13ююв33565 0.0 101128
07:00+13ю335876 0.0 101246
10:00+20ю444038 0.0 1011426
13:00+23зюз333358 0.0 10111946
16:00+24сз23325 0.0 10111845
19:00+25зюз123189 0.0 10102476
22:00+19с224615 0.0 101140